Regional Weather Roundup
Issued by NWS

Home | Current Version | Previous Version | Graphics & Text | Print | Product List | Glossary Off
Versions: 1 2 3 4 5 6 7 8 9 10 11 12 13 14 15 16 17 18 19 20 21 22 23 24 25 26 27 28 29 30 31 32 33 34 35 36 37 38 39 40 41 42 43 44 45 46 47 48 49 50

000
ASUS43 KMKX 190600
RWRWI

WISCONSIN REGIONAL WEATHER ROUNDUP
NATIONAL WEATHER SERVICE MILWAUKEE/SULLIVAN WI
100 AM CDT THU APR 19 2018

NOTE: "FAIR" INDICATES FEW OR NO CLOUDS BELOW 12,000 FEET WITH NO
SIGNIFICANT WEATHER AND/OR OBSTRUCTIONS TO VISIBILITY.

WIZ001-002-006>008-014>016-023>028-190700-
NORTHWEST WISCONSIN

CITY           SKY/WX    TMP DP  RH WIND       PRES   REMARKS
SUPERIOR ARPT  FAIR      24  21  90 CALM      30.26R
6HR MIN TEMP:  23; 6HR MAX TEMP:  37;

ASHLAND        FAIR      24  15  68 W6        30.24R WCI  17
6HR MIN TEMP:  23; 6HR MAX TEMP:  35;

HAYWARD        FAIR      23  15  71 NE5       30.22R WCI  17
6HR MIN TEMP:  21; 6HR MAX TEMP:  35;

SIREN          FAIR      25  15  66 CALM      30.23R
CUMBERLAND     FAIR      27  12  54 N6        30.20R WCI  20
RICE LAKE      FAIR      27  16  62 CALM      30.21R
CHETEK         FAIR      29  15  55 CALM      30.19R
LADYSMITH      FAIR      31  15  51 N7        30.20R WCI  24
6HR MIN TEMP:  31; 6HR MAX TEMP:  38;

EAU CLAIRE     NOT AVBL
MENOMONIE      FAIR      34  15  46 N3        30.20R
6HR MIN TEMP:  32; 6HR MAX TEMP:  40;

NEW RICHMOND   FAIR      32  13  46 CALM      30.21R
OSCEOLA        FAIR      34  14  42 N3        30.25R
$$

WIZ003>005-009-010-017-018-190700-
NORTH CENTRAL WISCONSIN

CITY           SKY/WX    TMP DP  RH WIND       PRES   REMARKS
MANITOWISH WTR FAIR      29  14  53 N5        30.15R WCI  24
ARBOR VITAE    FAIR      25  14  62 N6        30.14R WCI  18
WOODRUFF       FAIR      25  14  62 N6        30.14R WCI  18
RHINELANDER    FAIR      29  16  58 N6        30.13R WCI  23
6HR MIN TEMP:  29; 6HR MAX TEMP:  38;

EAGLE RIVER    FAIR      26  13  56 N7        30.13R WCI  19
6HR MIN TEMP:  26; 6HR MAX TEMP:  34;

LAND O LAKES   FAIR      29  16  57 N6        30.16R WCI  23
6HR MIN TEMP:  29; 6HR MAX TEMP:  34;

PHILLIPS       FAIR      30  13  50 N5        30.16R WCI  25
6HR MIN TEMP:  29; 6HR MAX TEMP:  36;

TOMAHAWK       FAIR      29  16  58 N5        30.14R WCI  24
MEDFORD        FAIR      28  17  64 N5        30.13R WCI  22
MERRILL          N/A     30  18  60 N3        30.14R
6HR MIN TEMP:  30; 6HR MAX TEMP:  41;

$$

WIZ029-030-035-036-043>047-190700-
CENTRAL WISCONSIN

CITY           SKY/WX    TMP DP  RH WIND       PRES   REMARKS
WAUSAU         FAIR      30  17  58 NW5       30.11R WCI  25
6HR MIN TEMP:  30; 6HR MAX TEMP:  41;

MOSINEE        FAIR      32  19  59 N14       30.12R WCI  22
MARSHFIELD     FAIR      32  17  54 N8        30.11R WCI  25
6HR MIN TEMP:  32; 6HR MAX TEMP:  39;

STEVENS POINT  FAIR      32  17  53 N9        30.11R WCI  24
WAUPACA        FAIR      35  20  53 N9        30.09R WCI  28
6HR MIN TEMP:  35; 6HR MAX TEMP:  38;

WAUTOMA        FAIR      31  22  69 N6        30.10R WCI  25
6HR MIN TEMP:  30; 6HR MAX TEMP:  32;

WISC RAPIDS    FAIR      33  17  51 N12       30.12R WCI  24
6HR MIN TEMP:  31; 6HR MAX TEMP:  37;

CAMP DOUGLAS   FOG       19  18  97 W6        30.12R VSB 3/4 WCI  10
6HR MIN TEMP:  17; 6HR MAX TEMP:  32; 6HR PCP:  0.04;

$$

WIZ011>013-019>022-031-037>040-048>050-190700-
NORTHEAST WISCONSIN

CITY           SKY/WX    TMP DP  RH WIND       PRES   REMARKS
ANTIGO         FAIR      25  15  65 N6        30.10R WCI  18
SHAWANO        FAIR      35  19  53 N9        30.09R WCI  27
6HR MIN TEMP:  35; 6HR MAX TEMP:  39;

OCONTO         FAIR      34  19  54 N8        30.08R WCI  27
STURGEON BAY   FAIR      32  23  69 N13       30.07R WCI  22
6HR MIN TEMP:  32; 6HR MAX TEMP:  36;

GREEN BAY      FAIR      34  20  56 N15       30.07R WCI  24
6HR MIN TEMP:  34; 6HR MAX TEMP:  36;

MANITOWOC      FAIR      34  20  56 N13       30.05R WCI  25
6HR MIN TEMP:  34; 6HR MAX TEMP:  36;

APPLETON       FAIR      32  18  55 N16       30.04R WCI  21
CLINTONVILLE   FAIR      34  17  50 N8        30.09R WCI  27
6HR MIN TEMP:  34; 6HR MAX TEMP:  37;

OSHKOSH        FAIR      32  22  66 N13       30.06R WCI  22
6HR MIN TEMP:  32; 6HR MAX TEMP:  36;

$$

WIZ032>034-041-042-053>061-190700-
SOUTHWEST WISCONSIN

CITY           SKY/WX    TMP DP  RH WIND       PRES   REMARKS
LA CROSSE      FAIR      30  28  92 N6        30.16R WCI  24
6HR MIN TEMP:  30; 6HR MAX TEMP:  34; 6HR PCP:  0.07;

SPARTA         FAIR      21  21  98 CALM      30.15R
VIROQUA        FAIR      30  30 100 N5        30.11R WCI  25
BOSCOBEL       CLOUDY    33  31  92 CALM      30.14R
6HR MIN TEMP:  33; 6HR MAX TEMP:  34; 6HR PCP:  0.02;

PRAIRIE DU CHI CLOUDY    32  31  94 CALM      30.13R
PLATTEVILLE    CLOUDY    32  32 100 NW10      30.10R WCI  24
$$

WIZ056-057-062-063-064-067-068-190700-
SOUTH CENTRAL WISCONSIN

CITY           SKY/WX    TMP DP  RH WIND       PRES   REMARKS
REEDSBURG      FAIR      30  30 100 CALM      30.11R
6HR MIN TEMP:  29; 6HR MAX TEMP:  32; 6HR PCP:  0.16;

BARABOO/DELLS  FAIR      30  29  96 CALM      30.09R
LONE ROCK      NOT AVBL
MINERAL POINT  CLOUDY    32  32 100 NW7       30.09R WCI  26
MADISON        CLOUDY    33  29  85 N9        30.07R WCI  25
6HR MIN TEMP:  31; 6HR MAX TEMP:  33; 6HR PCP:  0.16;

MIDDLETON      CLOUDY    34  31  86 N12       30.07R WCI  26
WATERTOWN      CLOUDY    32  31  94 N6        30.04R WCI  27
MONROE         MIX PCPN  32  32 100 N12       30.04R WCI  23
JANESVILLE     FLURRIES  34  34 100 N9        30.04R WCI  26
$$

WIZ051-052-058>065-066-070>072-190700-
SOUTHEAST WISCONSIN

CITY           SKY/WX    TMP DP  RH WIND       PRES   REMARKS
MILWAUKEE      CLOUDY    36  31  82 N16       30.02R WCI  26
6HR MIN TEMP:  33; 6HR MAX TEMP:  36; 6HR PCP:  0.08;

WAUKESHA       CLOUDY    32  30  93 N7        30.03R WCI  26
MILWAUKEE/TIMM CLOUDY    34  28  80 N9        30.03R WCI  26
RACINE         LGT RAIN  35  33  92 N15G26    30.03R WCI  25
6HR MIN TEMP:  33; 6HR MAX TEMP:  35; 6HR PCP:  0.07;

BURLINGTON     LGT SNOW  32  31  96 N7        30.02R WCI  26
KENOSHA        SLEET     34  31  88 N10       30.01R WCI  26
6HR MIN TEMP:  33; 6HR MAX TEMP:  34; 6HR PCP:  0.09;

FOND DU LAC    FAIR      32  22  66 N9        30.06R WCI  24
6HR MIN TEMP:  32; 6HR MAX TEMP:  35; 6HR PCP:  0.04;

SHEBOYGAN      FAIR      34  22  61 N9        30.03R WCI  27
6HR MIN TEMP:  33; 6HR MAX TEMP:  36; 6HR PCP:  0.02;

WEST BEND      FAIR      32  28  86 N6        30.03R WCI  26
JUNEAU         FAIR      29  25  84 N7        30.06R WCI  22
$$

LSZ147-162-190700-
LAKE SUPERIOR

STATION/POSITION TIME  TEMP    WIND        PRES    WAVE
                       AIR SEA DIR/SP/G            HT/PER
                 (UTC) (F)     (DEG/KT/KT) (MB)    (FT/S)
DEVILS ISLAND    0500   38     300/  9/  9 1024.3R
SAXON HARBOR     0530   25     180/  3/  4 1023.0R
$$

LMZ867-665-643>646-190700-
LAKE MICHIGAN

STATION/POSITION TIME  TEMP    WIND        PRES    WAVE
                       AIR SEA DIR/SP/G            HT/PER
                 (UTC) (F)     (DEG/KT/KT) (MB)    (FT/S)
NORTHPORT PIER   0540   33                 1018.3R
KEWAUNEE LAKESHO 0524   34     350/ 10/ 15 1016.4
SHEBOYGAN LAKESH 0500   36      10/ 24/ 27 1016.6R
PORT WASHINGTON  0530   35      10/  7/ 14 1017.6R
MILWAUKEE LAKESH 0530   35      10/ 16/ 19   N/A
KENOSHA   LAKESH 0500   34                 1015.2
$$

TC  - TEMPERATURE IN CELSIUS
VSB - VISIBILITY IN STATUTE MILES
WCI - WIND CHILL INDEX
HX  - HEAT INDEX





USA.gov is the U.S. government's official web portal to all federal, state and local government web resources and services.